,,Stat5,,Stat1,,Stat2,,Stat3,,Stat4,,Wind1,,Wind1,
time,status,PA1M_AVG,status,PR1M_SUM,status,RH1M_AVG,status,SR1M_AVG,status,TA1M_AVG,status,W1dAve1m,status,W1sAve1m,
2000-05-13, 00:00:00,VALID,917.804,VALID,0,VALID,95.6793,VALID,0.0509425,VALID,21.0126,VALID,85,VALID,0,
2000-05-13, 00:01:00,VALID,917.795,VALID,0,VALID,95.5407,VALID,0,VALID,21.0129,VALID,85,VALID,0,
2000-05-13, 00:02:00,VALID,917.795,VALID,0,VALID,94.952,VALID,0,VALID,20.9905,VALID,85,VALID,0,
2000-05-13, 00:03:00,VALID,917.792,VALID,0,VALID,94.3696,VALID,0,VALID,20.9316,VALID,85,VALID,0,
2000-05-13, 00:04:00,VALID,917.794,VALID,0,VALID,93.9792,VALID,0,VALID,20.8936,VALID,85,VALID,0,
2000-05-13, 00:05:00,VALID,917.787,VALID,0,VALID,94.4739,VALID,0,VALID,20.8642,VALID,85,VALID,0,
2000-05-13, 00:06:00,VALID,917.777,VALID,0,VALID,94.4573,VALID,0,VALID,20.8252,VALID,86,VALID,0,
2000-05-13, 00:07:00,VALID,917.762,VALID,0,VALID,94.6443,VALID,0,VALID,20.7999,VALID,86,VALID,0,
2000-05-13, 00:08:00,VALID,917.757,VALID,0,VALID,95.233,VALID,-0.0169808,VALID,20.7581,VALID,86,VALID,0,
2000-05-13, 00:09:00,VALID,917.74,VALID,0,VALID,95.5433,VALID,0,VALID,20.7223,VALID,86,VALID,0,
2000-05-13, 00:10:00,VALID,917.729,VALID,0,VALID,95.5687,VALID,0,VALID,20.7027,VALID,86,VALID,0,
2000-05-13, 00:11:00,VALID,917.706,VALID,0,VALID,95.5992,VALID,0.0169808,VALID,20.69,VALID,88,VALID,0,
2000-05-13, 00:12:00,VALID,917.7,VALID,0,VALID,95.748,VALID,0,VALID,20.6801,VALID,85,VALID,0,
2000-05-13, 00:13:00,VALID,917.68,VALID,0,VALID,95.7671,VALID,-0.0169808,VALID,20.6577,VALID,84,VALID,0,
2000-05-13, 00:14:00,VALID,917.675,VALID,0,VALID,95.9769,VALID,0,VALID,20.6515,VALID,81,VALID,0,
2000-05-13, 00:15:00,VALID,917.639,VALID,0,VALID,95.9146,VALID,0,VALID,20.6383,VALID,81,VALID,0,
2000-05-13, 00:16:00,VALID,917.625,VALID,0,VALID,95.9858,VALID,0,VALID,20.6547,VALID,81,VALID,0,
2000-05-13, 00:17:00,VALID,917.616,VALID,0,VALID,95.8485,VALID,0,VALID,20.6483,VALID,81,VALID,0,
2000-05-13, 00:18:00,VALID,917.606,VALID,0,VALID,95.5713,VALID,-0.0169808,VALID,20.6353,VALID,81,VALID,0,
2000-05-13, 00:19:00,VALID,917.586,VALID,0,VALID,95.6603,VALID,0,VALID,20.6353,VALID,81,VALID,0,
2000-05-13, 00:20:00,VALID,917.575,VALID,0,VALID,95.7518,VALID,0,VALID,20.6219,VALID,81,VALID,0,
2000-05-13, 00:21:00,VALID,917.56,VALID,0,VALID,95.8599,VALID,0,VALID,20.6351,VALID,81,VALID,0,
2000-05-13, 00:22:00,VALID,917.543,VALID,0,VALID,95.8764,VALID,0,VALID,20.6356,VALID,81,VALID,0,
2000-05-13, 00:23:00,VALID,917.515,VALID,0,VALID,95.9451,VALID,0,VALID,20.6098,VALID,85,VALID,0,
2000-05-13, 00:24:00,VALID,917.494,VALID,0,VALID,96.1562,VALID,0,VALID,20.5864,VALID,94,VALID,0,
2000-05-13, 00:25:00,VALID,917.471,VALID,0,VALID,96.2935,VALID,0,VALID,20.5837,VALID,94,VALID,0,
2000-05-13, 00:26:00,VALID,917.465,VALID,0,VALID,96.366,VALID,0.0339617,VALID,20.5732,VALID,94,VALID,0,
2000-05-13, 00:27:00,VALID,917.453,VALID,0,VALID,96.469,VALID,0,VALID,20.5807,VALID,94,VALID,0,
2000-05-13, 00:28:00,VALID,917.452,VALID,0,VALID,96.5835,VALID,0,VALID,20.5672,VALID,94,VALID,0,
2000-05-13, 00:29:00,VALID,917.433,VALID,0,VALID,96.5084,VALID,0,VALID,20.5678,VALID,94,VALID,0,
2000-05-13, 00:30:00,VALID,917.425,VALID,0,VALID,96.4118,VALID,0,VALID,20.5678,VALID,94,VALID,0,
2000-05-13, 00:31:00,VALID,917.401,VALID,0,VALID,96.3749,VALID,0,VALID,20.5578,VALID,94,VALID,0,
2000-05-13, 00:32:00,VALID,917.392,VALID,0,VALID,96.4588,VALID,0.0169808,VALID,20.5643,VALID,94,VALID,0,
2000-05-13, 00:33:00,VALID,917.385,VALID,0,VALID,96.53,VALID,0,VALID,20.5678,VALID,94,VALID,0,
2000-05-13, 00:34:00,VALID,917.387,VALID,0,VALID,96.647,VALID,0.0169808,VALID,20.5807,VALID,94,VALID,0,
2000-05-13, 00:35:00,VALID,917.379,VALID,0,VALID,96.6038,VALID,0,VALID,20.574,VALID,94,VALID,0,
2000-05-13, 00:36:00,VALID,917.37,VALID,0,VALID,96.4995,VALID,0.0169808,VALID,20.574,VALID,94,VALID,0,
2000-05-13, 00:37:00,VALID,917.347,VALID,0,VALID,96.4601,VALID,0,VALID,20.5772,VALID,94,VALID,0,
2000-05-13, 00:38:00,VALID,917.329,VALID,0,VALID,96.4995,VALID,0.0169808,VALID,20.5705,VALID,94,VALID,0,
2000-05-13, 00:39:00,VALID,917.303,VALID,0,VALID,96.4487,VALID,0,VALID,20.5578,VALID,95,VALID,0,
2000-05-13, 00:40:00,VALID,917.276,VALID,0,VALID,96.3889,VALID,0.0169808,VALID,20.5411,VALID,97,VALID,0,
2000-05-13, 00:41:00,VALID,917.269,VALID,0,VALID,96.455,VALID,0.0339617,VALID,20.5411,VALID,97,VALID,0,
2000-05-13, 00:42:00,VALID,917.262,VALID,0,VALID,96.5784,VALID,0,VALID,20.5516,VALID,97,VALID,0,
2000-05-13, 00:43:00,VALID,917.248,VALID,0,VALID,96.4995,VALID,0,VALID,20.532,VALID,97,VALID,0,
2000-05-13, 00:44:00,VALID,917.255,VALID,0,VALID,96.0723,VALID,0.0169808,VALID,20.5064,VALID,97,VALID,0,
2000-05-13, 00:45:00,VALID,917.237,VALID,0,VALID,95.7366,VALID,0,VALID,20.4412,VALID,97,VALID,0,
2000-05-13, 00:46:00,VALID,917.234,VALID,0,VALID,95.9044,VALID,-0.0169808,VALID,20.4321,VALID,97,VALID,0,
2000-05-13, 00:47:00,VALID,917.223,VALID,0,VALID,96.2477,VALID,0,VALID,20.445,VALID,97,VALID,0,
2000-05-13, 00:48:00,VALID,917.218,VALID,0,VALID,96.4118,VALID,0,VALID,20.445,VALID,97,VALID,0,
2000-05-13, 00:49:00,VALID,917.209,VALID,0,VALID,96.2986,VALID,0,VALID,20.4259,VALID,97,VALID,0,
2000-05-13, 00:50:00,VALID,917.204,VALID,0,VALID,96.2185,VALID,-0.0169808,VALID,20.4094,VALID,97,VALID,0,
2000-05-13, 00:51:00,VALID,917.204,VALID,0,VALID,96.3037,VALID,0,VALID,20.4162,VALID,97,VALID,0,
2000-05-13, 00:52:00,VALID,917.195,VALID,0,VALID,96.5199,VALID,0,VALID,20.4191,VALID,97,VALID,0,
2000-05-13, 00:53:00,VALID,917.189,VALID,0,VALID,96.7259,VALID,0,VALID,20.4323,VALID,97,VALID,0,
2000-05-13, 00:54:00,VALID,917.179,VALID,0,VALID,96.8912,VALID,-0.0169808,VALID,20.4458,VALID,104,VALID,0,
2000-05-13, 00:55:00,VALID,917.167,VALID,0,VALID,96.942,VALID,0,VALID,20.4552,VALID,99,VALID,0,
2000-05-13, 00:56:00,VALID,917.168,VALID,0,VALID,96.9471,VALID,-0.0169808,VALID,20.4321,VALID,98,VALID,0,
2000-05-13, 00:57:00,VALID,917.165,VALID,0,VALID,97.0641,VALID,-0.0169808,VALID,20.4358,VALID,98,VALID,0,
2000-05-13, 00:58:00,VALID,917.159,VALID,0,VALID,97.1023,VALID,-0.0169808,VALID,20.4264,VALID,101,VALID,0,
2000-05-13, 00:59:00,VALID,917.151,VALID,0,VALID,97.3032,VALID,-0.0339617,VALID,20.4162,VALID,99,VALID,0,
2000-05-13, 01:00:00,VALID,917.136,VALID,0,VALID,97.4431,VALID,-0.0169808,VALID,20.4423,VALID,100,VALID,0,
2000-05-13, 01:01:00,VALID,917.152,VALID,0,VALID,97.5918,VALID,-0.0169808,VALID,20.4713,VALID,94,VALID,0,
2000-05-13, 01:02:00,VALID,917.141,VALID,0,VALID,97.5779,VALID,0,VALID,20.4582,VALID,96,VALID,0,
2000-05-13, 01:03:00,VALID,917.145,VALID,0,VALID,97.6173,VALID,0,VALID,20.4813,VALID,96,VALID,0,
2000-05-13, 01:04:00,VALID,917.126,VALID,0,VALID,97.5944,VALID,-0.0169808,VALID,20.4711,VALID,96,VALID,0,
2000-05-13, 01:05:00,VALID,917.11,VALID,0,VALID,97.6313,VALID,-0.0169808,VALID,20.4843,VALID,96,VALID,0,
2000-05-13, 01:06:00,VALID,917.097,VALID,0,VALID,97.6719,VALID,0,VALID,20.4748,VALID,96,VALID,0,
2000-05-13, 01:07:00,VALID,917.093,VALID,0,VALID,97.6936,VALID,0,VALID,20.4679,VALID,96,VALID,0,
2000-05-13, 01:08:00,VALID,917.086,VALID,0,VALID,97.8182,VALID,-0.0169808,VALID,20.4775,VALID,81,VALID,0,
2000-05-13, 01:09:00,VALID,917.081,VALID,0,VALID,97.9949,VALID,0,VALID,20.5201,VALID,74,VALID,0,
2000-05-13, 01:10:00,VALID,917.07,VALID,0,VALID,98.0979,VALID,-0.0169808,VALID,20.5457,VALID,72,VALID,0,
2000-05-13, 01:11:00,VALID,917.071,VALID,0,VALID,98.1132,VALID,-0.0169808,VALID,20.572,VALID,97,VALID,0,
2000-05-13, 01:12:00,VALID,917.053,VALID,0,VALID,98.1081,VALID,0,VALID,20.5685,VALID,89,VALID,0,
2000-05-13, 01:13:00,VALID,917.03,VALID,0,VALID,98.0293,VALID,0,VALID,20.5457,VALID,102,VALID,0,
2000-05-13, 01:14:00,VALID,917.013,VALID,0,VALID,98.0204,VALID,-0.0339617,VALID,20.5491,VALID,104,VALID,0,
2000-05-13, 01:15:00,VALID,917.005,VALID,0,VALID,98.0077,VALID,-0.0339617,VALID,20.5389,VALID,91,VALID,0,
2000-05-13, 01:16:00,VALID,916.999,VALID,0,VALID,98.0509,VALID,0,VALID,20.5519,VALID,72,VALID,0,
2000-05-13, 01:17:00,VALID,916.993,VALID,0,VALID,98.0661,VALID,0,VALID,20.5586,VALID,84,VALID,0,
2000-05-13, 01:18:00,VALID,916.972,VALID,0,VALID,98.0318,VALID,-0.0509425,VALID,20.565,VALID,89,VALID,0,
2000-05-13, 01:19:00,VALID,916.964,VALID,0,VALID,98,VALID,0,VALID,20.578,VALID,88,VALID,0,
2000-05-13, 01:20:00,VALID,916.927,VALID,0,VALID,98.0204,VALID,-0.0169808,VALID,20.578,VALID,88,VALID,0,
2000-05-13, 01:21:00,VALID,916.896,VALID,0,VALID,98.0369,VALID,-0.0339617,VALID,20.6098,VALID,105,VALID,0,
2000-05-13, 01:22:00,VALID,916.861,VALID,0,VALID,97.9542,VALID,-0.0339617,VALID,20.6068,VALID,94,VALID,0.463325,
2000-05-13, 01:23:00,VALID,916.835,VALID,0,VALID,97.8754,VALID,-0.0339617,VALID,20.6205,VALID,96,VALID,0.915329,
2000-05-13, 01:24:00,VALID,916.817,VALID,0,VALID,97.8474,VALID,-0.0679233,VALID,20.6197,VALID,88,VALID,0.821957,
2000-05-13, 01:25:00,VALID,916.801,VALID,0,VALID,97.8004,VALID,-0.0339617,VALID,20.6232,VALID,50,VALID,0.838141,
2000-05-13, 01:26:00,VALID,916.808,VALID,0,VALID,97.7813,VALID,-0.0169808,VALID,20.6324,VALID,335,VALID,0.0747195,
2000-05-13, 01:27:00,VALID,916.783,VALID,0,VALID,97.7597,VALID,-0.0849042,VALID,20.6593,VALID,70,VALID,0.31799,
2000-05-13, 01:28:00,VALID,916.775,VALID,0,VALID,97.7444,VALID,-0.0509425,VALID,20.6456,VALID,89,VALID,0.350123,
2000-05-13, 01:29:00,VALID,916.761,VALID,0,VALID,97.6516,VALID,0,VALID,20.6453,VALID,98,VALID,0.526242,
2000-05-13, 01:30:00,VALID,916.74,VALID,0,VALID,97.6046,VALID,-0.0169808,VALID,20.6553,VALID,93,VALID,0.628606,
2000-05-13, 01:31:00,VALID,916.744,VALID,0,VALID,97.5359,VALID,-0.0339617,VALID,20.6429,VALID,89,VALID,0.160616,
2000-05-13, 01:32:00,VALID,916.748,VALID,0,VALID,97.4723,VALID,-0.0679233,VALID,20.6469,VALID,89,VALID,0.306949,
2000-05-13, 01:33:00,VALID,916.745,VALID,0,VALID,97.527,VALID,-0.0339617,VALID,20.6264,VALID,90,VALID,0.395148,
2000-05-13, 01:34:00,VALID,916.735,VALID,0,VALID,97.5511,VALID,-0.0679233,VALID,20.6197,VALID,89,VALID,0.636936,
2000-05-13, 01:35:00,VALID,916.746,VALID,0,VALID,97.4914,VALID,-0.0339617,VALID,20.6038,VALID,92,VALID,0.503906,
2000-05-13, 01:36:00,VALID,916.735,VALID,0,VALID,97.5321,VALID,-0.0509425,VALID,20.6073,VALID,102,VALID,0.794819,
2000-05-13, 01:37:00,VALID,916.713,VALID,0,VALID,97.588,VALID,-0.0509425,VALID,20.5906,VALID,88,VALID,0.396115,
2000-05-13, 01:38:00,VALID,916.706,VALID,0,VALID,97.6058,VALID,-0.0509425,VALID,20.5906,VALID,98,VALID,0.20692,
2000-05-13, 01:39:00,VALID,916.701,VALID,0,VALID,97.5982,VALID,0,VALID,20.5844,VALID,103,VALID,0.485268,
2000-05-13, 01:40:00,VALID,916.679,VALID,0,VALID,97.6859,VALID,-0.0509425,VALID,20.574,VALID,68,VALID,0.674548,
2000-05-13, 01:41:00,VALID,916.667,VALID,0,VALID,97.78,VALID,-0.0169808,VALID,20.578,VALID,91,VALID,0.4373,
2000-05-13, 01:42:00,VALID,916.654,VALID,0,VALID,97.7521,VALID,0,VALID,20.5712,VALID,89,VALID,0.0046875,
2000-05-13, 01:43:00,VALID,916.659,VALID,0,VALID,97.7457,VALID,-0.0169808,VALID,20.5516,VALID,89,VALID,0.000205592,
2000-05-13, 01:44:00,VALID,916.667,VALID,0,VALID,97.7546,VALID,-0.0339617,VALID,20.5556,VALID,95,VALID,0.62859,
2000-05-13, 01:45:00,VALID,916.67,VALID,0,VALID,97.7737,VALID,0,VALID,20.5516,VALID,78,VALID,1.22756,
2000-05-13, 01:46:00,VALID,916.677,VALID,0,VALID,97.7444,VALID,-0.0339617,VALID,20.5322,VALID,87,VALID,0.506611,
2000-05-13, 01:47:00,VALID,916.668,VALID,0,VALID,97.7393,VALID,0,VALID,20.5357,VALID,105,VALID,0.364583,
2000-05-13, 01:48:00,VALID,916.642,VALID,0,VALID,97.7737,VALID,-0.0339617,VALID,20.5362,VALID,94,VALID,0.548437,
2000-05-13, 01:49:00,VALID,916.631,VALID,0,VALID,97.7762,VALID,-0.0169808,VALID,20.5327,VALID,98,VALID,0.32168,
2000-05-13, 01:50:00,VALID,916.622,VALID,0,VALID,97.7749,VALID,-0.0339617,VALID,20.5424,VALID,99,VALID,0.12283,
2000-05-13, 01:51:00,VALID,916.625,VALID,0,VALID,97.7432,VALID,-0.0169808,VALID,20.5163,VALID,99,VALID,0,
2000-05-13, 01:52:00,VALID,916.621,VALID,0,VALID,97.7215,VALID,-0.0169808,VALID,20.5031,VALID,99,VALID,0,
2000-05-13, 01:53:00,VALID,916.635,VALID,0,VALID,97.7559,VALID,-0.0339617,VALID,20.494,VALID,101,VALID,0,
2000-05-13, 01:54:00,VALID,916.623,VALID,0,VALID,97.7775,VALID,-0.0509425,VALID,20.5069,VALID,101,VALID,0,
2000-05-13, 01:55:00,VALID,916.613,VALID,0,VALID,97.8106,VALID,-0.0509425,VALID,20.4972,VALID,101,VALID,0,
2000-05-13, 01:56:00,VALID,916.61,VALID,0,VALID,97.8271,VALID,-0.0679233,VALID,20.4912,VALID,100,VALID,0,
2000-05-13, 01:57:00,VALID,916.623,VALID,0,VALID,97.7851,VALID,-0.0679233,VALID,20.4751,VALID,98,VALID,0,
2000-05-13, 01:58:00,VALID,916.628,VALID,0,VALID,97.7813,VALID,-0.0679233,VALID,20.4587,VALID,93,VALID,0.612753,
2000-05-13, 01:59:00,VALID,916.618,VALID,0,VALID,97.8729,VALID,-0.0679233,VALID,20.4684,VALID,95,VALID,0.762957,
2000-05-13, 02:00:00,VALID,916.617,VALID,0,VALID,97.953,VALID,-0.0509425,VALID,20.4816,VALID,99,VALID,0.472266,
2000-05-13, 02:01:00,VALID,916.607,VALID,0,VALID,97.9886,VALID,-0.0679233,VALID,20.4713,VALID,93,VALID,0.363076,
2000-05-13, 02:02:00,VALID,916.619,VALID,0,VALID,98.0102,VALID,-0.0509425,VALID,20.4875,VALID,91,VALID,0,
2000-05-13, 02:03:00,VALID,916.615,VALID,0,VALID,98.0509,VALID,-0.0849042,VALID,20.4937,VALID,92,VALID,0,
2000-05-13, 02:04:00,VALID,916.62,VALID,0,VALID,98.0382,VALID,-0.0509425,VALID,20.5101,VALID,98,VALID,0.569912,
2000-05-13, 02:05:00,VALID,916.625,VALID,0,VALID,98.0064,VALID,-0.0679233,VALID,20.5104,VALID,89,VALID,0.63817,
2000-05-13, 02:06:00,VALID,916.631,VALID,0,VALID,97.9746,VALID,-0.0509425,VALID,20.5104,VALID,41,VALID,0.265625,
2000-05-13, 02:07:00,VALID,916.63,VALID,0,VALID,97.9708,VALID,-0.0169808,VALID,20.5166,VALID,49,VALID,0,
2000-05-13, 02:08:00,VALID,916.643,VALID,0,VALID,97.9504,VALID,-0.0339617,VALID,20.5139,VALID,49,VALID,0,
2000-05-13, 02:09:00,VALID,916.638,VALID,0,VALID,97.9441,VALID,-0.0849042,VALID,20.5238,VALID,163,VALID,0.361979,
2000-05-13, 02:10:00,VALID,916.632,VALID,0,VALID,97.9021,VALID,-0.0509425,VALID,20.5168,VALID,82,VALID,0.590255,
2000-05-13, 02:11:00,VALID,916.621,VALID,0,VALID,97.8805,VALID,-0.0169808,VALID,20.5424,VALID,108,VALID,0.268503,
2000-05-13, 02:12:00,VALID,916.602,VALID,0,VALID,97.8144,VALID,-0.0679233,VALID,20.5656,VALID,89,VALID,0.720861,
2000-05-13, 02:13:00,VALID,916.599,VALID,0,VALID,97.6732,VALID,-0.0339617,VALID,20.5777,VALID,90,VALID,0.620226,
2000-05-13, 02:14:00,VALID,916.598,VALID,0,VALID,97.5511,VALID,-0.0169808,VALID,20.5906,VALID,96,VALID,0.843117,
2000-05-13, 02:15:00,VALID,916.594,VALID,0,VALID,97.3769,VALID,-0.0169808,VALID,20.5939,VALID,335,VALID,0.536595,
2000-05-13, 02:16:00,VALID,916.594,VALID,0,VALID,97.2879,VALID,-0.0339617,VALID,20.6006,VALID,96,VALID,1.07432,
2000-05-13, 02:17:00,VALID,916.59,VALID,0,VALID,97.2218,VALID,-0.0679233,VALID,20.607,VALID,86,VALID,0.818109,
2000-05-13, 02:18:00,VALID,916.579,VALID,0,VALID,97.1697,VALID,-0.0339617,VALID,20.6202,VALID,82,VALID,0.179476,
2000-05-13, 02:19:00,VALID,916.55,VALID,0,VALID,97.1048,VALID,-0.0849042,VALID,20.607,VALID,89,VALID,0.614515,
2000-05-13, 02:20:00,VALID,916.55,VALID,0,VALID,96.9726,VALID,-0.0509425,VALID,20.5912,VALID,91,VALID,1.0647,
2000-05-13, 02:21:00,VALID,916.537,VALID,0,VALID,96.8505,VALID,-0.0169808,VALID,20.5849,VALID,84,VALID,0.901643,
2000-05-13, 02:22:00,VALID,916.546,VALID,0,VALID,96.7564,VALID,-0.0679233,VALID,20.5583,VALID,75,VALID,0.778033,
2000-05-13, 02:23:00,VALID,916.541,VALID,0,VALID,96.7335,VALID,0.0169808,VALID,20.5645,VALID,88,VALID,0.804688,
2000-05-13, 02:24:00,VALID,916.542,VALID,0,VALID,96.7221,VALID,0,VALID,20.5511,VALID,94,VALID,0.889147,
2000-05-13, 02:25:00,VALID,916.529,VALID,0,VALID,96.7564,VALID,0.0509425,VALID,20.5546,VALID,88,VALID,0.883681,
2000-05-13, 02:26:00,VALID,916.53,VALID,0,VALID,96.9026,VALID,0.0339617,VALID,20.5414,VALID,88,VALID,1.11871,
2000-05-13, 02:27:00,VALID,916.533,VALID,0,VALID,96.9662,VALID,0.0339617,VALID,20.5223,VALID,79,VALID,0.695107,
2000-05-13, 02:28:01,VALID,916.539,VALID,0,VALID,97.0298,VALID,0.0169808,VALID,20.5093,VALID,76,VALID,0.635769,
2000-05-13, 02:29:00,VALID,916.538,VALID,0,VALID,97.0565,VALID,0.0509425,VALID,20.5123,VALID,66,VALID,0.552679,
2000-05-13, 02:30:00,VALID,916.524,VALID,0,VALID,97.1048,VALID,0.0509425,VALID,20.5128,VALID,74,VALID,0.257366,
2000-05-13, 02:31:00,VALID,916.52,VALID,0,VALID,97.1544,VALID,0.0339617,VALID,20.5091,VALID,81,VALID,0.0372122,
2000-05-13, 02:32:00,VALID,916.513,VALID,0,VALID,97.1633,VALID,0.0169808,VALID,20.522,VALID,81,VALID,0.00160256,
2000-05-13, 02:33:00,VALID,916.5,VALID,0,VALID,97.176,VALID,0.0169808,VALID,20.5247,VALID,27,VALID,0.0707031,
2000-05-13, 02:34:00,VALID,916.485,VALID,0,VALID,97.1887,VALID,0.0509425,VALID,20.5347,VALID,276,VALID,0.0622944,
2000-05-13, 02:35:00,VALID,916.461,VALID,0,VALID,97.1811,VALID,0.0849042,VALID,20.5419,VALID,166,VALID,0.122255,
2000-05-13, 02:36:00,VALID,916.448,VALID,0,VALID,97.1582,VALID,0.0509425,VALID,20.5479,VALID,130,VALID,0,
2000-05-13, 02:37:00,VALID,916.445,VALID,0,VALID,97.1328,VALID,0.0509425,VALID,20.5441,VALID,96,VALID,0,
2000-05-13, 02:38:00,VALID,916.441,VALID,0,VALID,97.1926,VALID,0,VALID,20.5462,VALID,96,VALID,0,
2000-05-13, 02:39:01,VALID,916.443,VALID,0,VALID,97.2587,VALID,-0.0169808,VALID,20.5429,VALID,96,VALID,0,
2000-05-13, 02:40:00,VALID,916.44,VALID,0,VALID,97.2714,VALID,-0.0509425,VALID,20.527,VALID,96,VALID,0,
2000-05-13, 02:41:00,VALID,916.437,VALID,0,VALID,97.3134,VALID,-0.101885,VALID,20.523,VALID,96,VALID,0,
2000-05-13, 02:42:01,VALID,916.443,VALID,0,VALID,97.3642,VALID,-0.0169808,VALID,20.5432,VALID,96,VALID,0,
2000-05-13, 02:43:00,VALID,916.437,VALID,0,VALID,97.3642,VALID,-0.0339617,VALID,20.5499,VALID,96,VALID,0,
2000-05-13, 02:44:00,VALID,916.423,VALID,0,VALID,97.3502,VALID,-0.0509425,VALID,20.5462,VALID,96,VALID,0,
2000-05-13, 02:45:00,VALID,916.413,VALID,0,VALID,97.3273,VALID,-0.0679233,VALID,20.5395,VALID,100,VALID,0,
2000-05-13, 02:46:00,VALID,916.4,VALID,0,VALID,97.2383,VALID,-0.0679233,VALID,20.5395,VALID,102,VALID,0,
2000-05-13, 02:47:00,VALID,916.414,VALID,0,VALID,97.1646,VALID,-0.0509425,VALID,20.537,VALID,102,VALID,0,
2000-05-13, 02:48:00,VALID,916.415,VALID,0,VALID,97.1061,VALID,-0.0849042,VALID,20.5241,VALID,121,VALID,0,
2000-05-13, 02:49:01,VALID,916.413,VALID,0,VALID,97.0781,VALID,-0.0339617,VALID,20.5109,VALID,205,VALID,0,
2000-05-13, 02:50:00,VALID,916.392,VALID,0,VALID,97.0756,VALID,-0.0679233,VALID,20.498,VALID,169,VALID,0,
2000-05-13, 02:51:00,VALID,916.387,VALID,0,VALID,97.0692,VALID,-0.0849042,VALID,20.4923,VALID,131,VALID,0,
2000-05-13, 02:52:01,VALID,916.366,VALID,0,VALID,97.0603,VALID,-0.101885,VALID,20.4691,VALID,118,VALID,0,
2000-05-13, 02:53:00,VALID,916.383,VALID,0,VALID,97.0272,VALID,0.0339617,VALID,20.4579,VALID,114,VALID,0,
2000-05-13, 02:54:00,VALID,916.359,VALID,0,VALID,96.9306,VALID,0.0169808,VALID,20.4186,VALID,108,VALID,0,
2000-05-13, 02:55:00,VALID,916.361,VALID,0,VALID,96.8263,VALID,0.0169808,VALID,20.3766,VALID,118,VALID,0,
2000-05-13, 02:56:01,VALID,916.348,VALID,0,VALID,96.9026,VALID,0.0169808,VALID,20.3702,VALID,108,VALID,0,
2000-05-13, 02:57:00,VALID,916.328,VALID,0,VALID,96.909,VALID,0.0169808,VALID,20.3508,VALID,95,VALID,0.28418,
2000-05-13, 02:58:00,VALID,916.321,VALID,0,VALID,96.8683,VALID,0.0339617,VALID,20.3486,VALID,99,VALID,0.365885,
2000-05-13, 02:59:01,VALID,916.313,VALID,0,VALID,96.881,VALID,0.0339617,VALID,20.3349,VALID,98,VALID,0.0805122,
2000-05-13, 03:00:01,VALID,916.318,VALID,0,VALID,96.8416,VALID,0,VALID,20.3319,VALID,98,VALID,0.0136218,
2000-05-13, 03:01:00,VALID,916.33,VALID,0,VALID,96.8123,VALID,0.0679233,VALID,20.3319,VALID,98,VALID,0.0370066,
2000-05-13, 03:02:01,VALID,916.328,VALID,0,VALID,96.7958,VALID,0.0339617,VALID,20.3155,VALID,98,VALID,0,
2000-05-13, 03:03:00,VALID,916.325,VALID,0,VALID,96.82,VALID,0,VALID,20.3292,VALID,98,VALID,0,
2000-05-13, 03:04:00,VALID,916.317,VALID,0,VALID,96.8416,VALID,0.0509425,VALID,20.3157,VALID,98,VALID,0.102865,
2000-05-13, 03:05:00,VALID,916.291,VALID,0,VALID,96.8187,VALID,0.0169808,VALID,20.3123,VALID,98,VALID,0.0424409,
2000-05-13, 03:06:00,VALID,916.27,VALID,0,VALID,96.7602,VALID,0.0679233,VALID,20.2961,VALID,98,VALID,0,
2000-05-13, 03:07:01,VALID,916.258,VALID,0,VALID,96.7538,VALID,0.0339617,VALID,20.2829,VALID,103,VALID,0.0677083,
2000-05-13, 03:08:00,VALID,916.232,VALID,0,VALID,96.7144,VALID,-0.0509425,VALID,20.2909,VALID,99,VALID,0.464143,
2000-05-13, 03:09:00,VALID,916.235,VALID,0,VALID,96.7335,VALID,-0.0849042,VALID,20.2917,VALID,97,VALID,0.197424,
2000-05-13, 03:10:01,VALID,916.231,VALID,0,VALID,96.7653,VALID,-0.0849042,VALID,20.2688,VALID,97,VALID,0.0699013,
2000-05-13, 03:11:01,VALID,916.214,VALID,0,VALID,96.8708,VALID,-0.0849042,VALID,20.2688,VALID,95,VALID,0.527845,
2000-05-13, 03:12:00,VALID,916.21,VALID,0,VALID,96.9052,VALID,-0.0849042,VALID,20.2653,VALID,91,VALID,0.677885,
2000-05-13, 03:13:00,VALID,916.224,VALID,0,VALID,96.9497,VALID,-0.0339617,VALID,20.2653,VALID,86,VALID,0.339384,
2000-05-13, 03:14:00,VALID,916.244,VALID,0,VALID,96.9039,VALID,-0.0849042,VALID,20.2621,VALID,95,VALID,0.0298109,
2000-05-13, 03:15:00,VALID,916.25,VALID,0,VALID,96.8937,VALID,-0.0679233,VALID,20.2554,VALID,92,VALID,0,
2000-05-13, 03:16:00,VALID,916.265,VALID,0,VALID,96.9497,VALID,-0.0339617,VALID,20.2589,VALID,94,VALID,0,
2000-05-13, 03:17:00,VALID,916.248,VALID,0,VALID,96.9713,VALID,-0.0849042,VALID,20.2688,VALID,101,VALID,0,
2000-05-13, 03:18:00,VALID,916.236,VALID,0,VALID,96.9637,VALID,-0.101885,VALID,20.2726,VALID,99,VALID,0,
2000-05-13, 03:19:01,VALID,916.246,VALID,0,VALID,96.97,VALID,-0.101885,VALID,20.2524,VALID,101,VALID,0,
2000-05-13, 03:20:00,VALID,916.258,VALID,0,VALID,97.0044,VALID,-0.101885,VALID,20.2559,VALID,145,VALID,0,
2000-05-13, 03:21:00,VALID,916.268,VALID,0,VALID,97.0387,VALID,-0.101885,VALID,20.2624,VALID,287,VALID,0,
2000-05-13, 03:22:00,VALID,916.298,VALID,0,VALID,97.0603,VALID,-0.0679233,VALID,20.2624,VALID,287,VALID,0,
2000-05-13, 03:23:01,VALID,916.276,VALID,0,VALID,97.0984,VALID,-0.0509425,VALID,20.2589,VALID,287,VALID,0,
2000-05-13, 03:24:00,VALID,916.248,VALID,0,VALID,97.1697,VALID,-0.0169808,VALID,20.2651,VALID,287,VALID,0,
2000-05-13, 03:25:00,VALID,916.245,VALID,0,VALID,97.2256,VALID,-0.0509425,VALID,20.2586,VALID,287,VALID,0,
2000-05-13, 03:26:00,VALID,916.227,VALID,0,VALID,97.2765,VALID,-0.0339617,VALID,20.2648,VALID,288,VALID,0,
2000-05-13, 03:27:00,VALID,916.22,VALID,0,VALID,97.3184,VALID,0,VALID,20.2551,VALID,290,VALID,0,
2000-05-13, 03:28:01,VALID,916.217,VALID,0,VALID,97.3553,VALID,-0.0339617,VALID,20.2618,VALID,290,VALID,0,
2000-05-13, 03:29:00,VALID,916.211,VALID,0,VALID,97.3566,VALID,-0.0509425,VALID,20.2516,VALID,290,VALID,0,
2000-05-13, 03:30:01,VALID,916.204,VALID,0,VALID,97.3451,VALID,0,VALID,20.2519,VALID,222,VALID,0,
2000-05-13, 03:31:00,VALID,916.205,VALID,0,VALID,97.3655,VALID,-0.0169808,VALID,20.2653,VALID,119,VALID,0,
2000-05-13, 03:32:00,VALID,916.216,VALID,0,VALID,97.3922,VALID,-0.0509425,VALID,20.272,VALID,105,VALID,0,
2000-05-13, 03:33:01,VALID,916.197,VALID,0,VALID,97.4303,VALID,-0.0169808,VALID,20.2681,VALID,93,VALID,0,
2000-05-13, 03:34:00,VALID,916.223,VALID,0,VALID,97.4583,VALID,-0.0679233,VALID,20.2845,VALID,95,VALID,0,
2000-05-13, 03:35:01,VALID,916.23,VALID,0,VALID,97.3795,VALID,-0.0339617,VALID,20.2842,VALID,86,VALID,0,
2000-05-13, 03:36:00,VALID,916.239,VALID,0,VALID,97.3744,VALID,-0.0169808,VALID,20.2715,VALID,86,VALID,0,
2000-05-13, 03:37:00,VALID,916.249,VALID,0,VALID,97.3909,VALID,-0.0339617,VALID,20.2713,VALID,90,VALID,0.189823,
2000-05-13, 03:38:00,VALID,916.251,VALID,0,VALID,97.4253,VALID,0,VALID,20.274,VALID,100,VALID,0.781027,
2000-05-13, 03:39:00,VALID,916.246,VALID,0,VALID,97.4443,VALID,-0.0339617,VALID,20.2807,VALID,101,VALID,0.741365,
2000-05-13, 03:40:01,VALID,916.245,VALID,0,VALID,97.4202,VALID,-0.0509425,VALID,20.3036,VALID,105,VALID,0.560389,
2000-05-13, 03:41:00,VALID,916.223,VALID,0,VALID,97.3909,VALID,-0.0339617,VALID,20.3038,VALID,107,VALID,0.635861,
2000-05-13, 03:42:00,VALID,916.21,VALID,0,VALID,97.3718,VALID,-0.0169808,VALID,20.3197,VALID,96,VALID,0.52793,